Simultaneous Nadir Overpasses (SNOs) Predictions

Prediction of SNOs between GOES-16 and METOP-B Satellite Orbit:

Table of predicted SNOs for the next 14.0 days since TLE Epoch: 11/23/2024
Index Date Time (GOES-16) GOES-16 Lat,Lon METOP-B Lat,Lon Distance(km) Time Diff (sec)
1 11/24/2024 02:14:22 0.03, -75.19 0.10, -74.91 32.24 80
2 11/25/2024 14:35:45 -0.03, -75.24 0.89, -79.46 479.85 80
3 11/26/2024 14:12:19 -0.03, -75.26 -0.22, -74.45 92.35 80
4 11/28/2024 02:33:51 0.03, -75.24 -0.80, -79.02 430.43 80
5 11/29/2024 02:10:25 0.03, -75.25 0.32, -74.01 142.05 80
6 11/30/2024 14:31:47 -0.02, -75.31 0.70, -78.55 369.27 80
7 12/01/2024 14:08:22 -0.02, -75.32 -0.42, -73.54 203.39 80
8 12/03/2024 02:29:52 0.01, -75.31 -0.63, -78.11 318.83 80
9 12/04/2024 02:06:27 0.00, -75.33 0.50, -73.10 254.04 80
10 12/05/2024 14:27:49 0.00, -75.39 0.50, -77.64 256.65 80
11 12/06/2024 14:04:24 0.00, -75.41 -0.63, -72.63 316.57 80
